When you browse on this site, cookies collect data to enhance your experience and personalize the content and advertising you see.
Visit our Privacy Policy to learn more. By continuing to use the site, you agree to this use of cookies and data.
  • In Romania
  • List of Countries
  • For 7 days
  • Water Temperature
  • Weather Map
  • Weather Widgets
  • user-avatar
    Login

    Hourly Weather Saint-Omer

    Today, 22 August, Thursday

    Time Temperature Precipitation Wind Pressure Humidity
    00:00 +14°C° 0 mm 1 mps 766 mmHg 83%
    01:00 +14°C° 0 mm 1 mps 765 mmHg 83%
    02:00 +14°C° 0 mm 1 mps 765 mmHg 83%
    03:00 +13°C° 0 mm 1 mps 764 mmHg 83%
    04:00 +14°C° 0 mm 1 mps 765 mmHg 82%
    05:00 +14°C° 0 mm 1 mps 765 mmHg 81%
    06:00 +15°C° 0 mm 1 mps 765 mmHg 80%
    07:00 +17°C° 0 mm 2 mps 765 mmHg 71%
    08:00 +19°C° 0 mm 2 mps 765 mmHg 62%
    09:00 +21°C° 0 mm 2 mps 766 mmHg 53%
    10:00 +22°C° 0 mm 3 mps 766 mmHg 50%
    11:00 +24°C° 0 mm 3 mps 765 mmHg 47%
    12:00 +25°C° 0 mm 4 mps 765 mmHg 43%
    13:00 +25°C° 0 mm 4 mps 765 mmHg 44%
    14:00 +25°C° 0 mm 4 mps 765 mmHg 44%
    15:00 +23°C° 0 mm 4 mps 765 mmHg 45%
    16:00 +22°C° 0 mm 4 mps 765 mmHg 50%
    17:00 +21°C° 0 mm 3 mps 765 mmHg 55%
    18:00 +20°C° 0 mm 2 mps 764 mmHg 60%
    19:00 +18°C° 0 mm 2 mps 765 mmHg 65%
    20:00 +17°C° 0 mm 2 mps 765 mmHg 70%
    21:00 +15°C° 0 mm 1 mps 765 mmHg 74%
    22:00 +15°C° 0 mm 1 mps 765 mmHg 74%
    23:00 +14°C° 0 mm 1 mps 765 mmHg 74%

    Tomorrow, 23 August, Friday

    Time Temperature Precipitation Wind Pressure Humidity
    00:00 +14°C° 0 mm 1 mps 765 mmHg 74%
    01:00 +14°C° 0 mm 1 mps 765 mmHg 74%
    02:00 +13°C° 0 mm 1 mps 765 mmHg 74%
    03:00 +13°C° 0 mm 1 mps 765 mmHg 74%
    04:00 +14°C° 0 mm 1 mps 765 mmHg 72%
    05:00 +14°C° 0 mm 1 mps 765 mmHg 70%
    06:00 +15°C° 0 mm 1 mps 765 mmHg 68%
    07:00 +18°C° 0 mm 1 mps 765 mmHg 61%
    08:00 +20°C° 0 mm 1 mps 765 mmHg 54%
    09:00 +23°C° 0 mm 1 mps 765 mmHg 47%
    10:00 +24°C° 0 mm 1 mps 765 mmHg 44%
    11:00 +25°C° 0 mm 1 mps 765 mmHg 41%
    12:00 +26°C° 0 mm 2 mps 764 mmHg 37%
    13:00 +26°C° 0 mm 2 mps 764 mmHg 37%
    14:00 +27°C° 0 mm 2 mps 764 mmHg 38%
    15:00 +27°C° 0 mm 2 mps 764 mmHg 38%
    16:00 +25°C° 0 mm 3 mps 763 mmHg 44%
    17:00 +22°C° 0 mm 3 mps 763 mmHg 51%
    18:00 +21°C° 0 mm 3 mps 763 mmHg 58%
    19:00 +19°C° 0 mm 3 mps 763 mmHg 62%
    20:00 +18°C° 0 mm 3 mps 763 mmHg 65%
    21:00 +17°C° 0 mm 2 mps 763 mmHg 69%
    22:00 +17°C° 0 mm 2 mps 763 mmHg 71%
    23:00 +17°C° 0 mm 2 mps 762 mmHg 73%

    Day after tomorrow, 24 August, Saturday

    Time Temperature Precipitation Wind Pressure Humidity
    00:00 +17°C° 0 mm 2 mps 762 mmHg 75%
    01:00 +16°C° 0 mm 2 mps 762 mmHg 76%
    02:00 +16°C° 0 mm 2 mps 762 mmHg 78%
    03:00 +16°C° 0 mm 2 mps 761 mmHg 80%
    04:00 +16°C° 0 mm 2 mps 761 mmHg 78%
    05:00 +17°C° 0 mm 2 mps 761 mmHg 77%
    06:00 +17°C° 0 mm 2 mps 761 mmHg 75%
    07:00 +19°C° 0 mm 2 mps 761 mmHg 66%
    08:00 +23°C° 0 mm 2 mps 761 mmHg 57%
    09:00 +26°C° 0 mm 3 mps 761 mmHg 49%
    10:00 +27°C° 0 mm 3 mps 761 mmHg 44%
    11:00 +28°C° 0 mm 3 mps 760 mmHg 39%
    12:00 +30°C° 0 mm 3 mps 760 mmHg 35%
    13:00 +30°C° 0 mm 3 mps 760 mmHg 34%
    14:00 +30°C° 0 mm 3 mps 759 mmHg 33%
    15:00 +30°C° 0 mm 3 mps 759 mmHg 33%
    16:00 +29°C° 0 mm 2 mps 759 mmHg 38%
    17:00 +27°C° 0 mm 2 mps 759 mmHg 44%
    18:00 +26°C° 0 mm 1 mps 758 mmHg 50%
    19:00 +25°C° 0 mm 1 mps 759 mmHg 53%
    20:00 +23°C° 0 mm 1 mps 759 mmHg 55%
    21:00 +22°C° 0 mm 1 mps 759 mmHg 58%
    22:00 +22°C° 0 mm 1 mps 759 mmHg 60%
    23:00 +21°C° 0 mm 1 mps 758 mmHg 62%

    25 August, Sunday

    Time Temperature Precipitation Wind Pressure Humidity
    00:00 +21°C° 0 mm 1 mps 758 mmHg 64%
    01:00 +21°C° 0 mm 1 mps 758 mmHg 67%
    02:00 +20°C° 0 mm 1 mps 758 mmHg 70%
    03:00 +19°C° 0 mm 1 mps 758 mmHg 73%
    04:00 +20°C° 0 mm 1 mps 758 mmHg 72%
    05:00 +20°C° 0 mm 1 mps 758 mmHg 71%
    06:00 +20°C° 0 mm 1 mps 758 mmHg 70%
    07:00 +23°C° 0 mm 2 mps 758 mmHg 63%
    08:00 +25°C° 0 mm 2 mps 758 mmHg 55%
    09:00 +28°C° 0 mm 2 mps 758 mmHg 47%
    10:00 +29°C° 0 mm 2 mps 758 mmHg 42%
    11:00 +31°C° 0 mm 2 mps 758 mmHg 37%
    12:00 +32°C° 0 mm 2 mps 758 mmHg 32%
    13:00 +32°C° 0 mm 2 mps 758 mmHg 33%
    14:00 +32°C° 0 mm 2 mps 758 mmHg 33%
    15:00 +32°C° 0 mm 2 mps 758 mmHg 33%
    16:00 +31°C° 0 mm 2 mps 759 mmHg 39%
    17:00 +29°C° 0 mm 2 mps 759 mmHg 45%
    18:00 +27°C° 0 mm 2 mps 759 mmHg 51%
    19:00 +26°C° 0 mm 2 mps 759 mmHg 54%
    20:00 +24°C° 0 mm 2 mps 760 mmHg 57%
    21:00 +23°C° 0 mm 1 mps 760 mmHg 60%
    22:00 +22°C° 0 mm 1 mps 760 mmHg 61%
    23:00 +22°C° 0 mm 1 mps 760 mmHg 62%

    26 August, Monday

    Time Temperature Precipitation Wind Pressure Humidity
    00:00 +21°C° 0 mm 1 mps 760 mmHg 64%
    01:00 +21°C° 0 mm 1 mps 760 mmHg 65%
    02:00 +21°C° 0 mm 1 mps 760 mmHg 67%
    03:00 +20°C° 0 mm 1 mps 760 mmHg 68%
    04:00 +20°C° 0 mm 1 mps 760 mmHg 69%
    05:00 +20°C° 0 mm 1 mps 760 mmHg 70%
    06:00 +21°C° 0 mm 1 mps 761 mmHg 70%
    07:00 +23°C° 0 mm 1 mps 761 mmHg 63%
    08:00 +25°C° 0 mm 1 mps 761 mmHg 55%
    09:00 +28°C° 0 mm 2 mps 761 mmHg 47%
    10:00 +29°C° 0 mm 2 mps 761 mmHg 44%
    11:00 +30°C° 0 mm 1 mps 761 mmHg 40%
    12:00 +31°C° 0 mm 1 mps 761 mmHg 37%
    13:00 +31°C° 0 mm 2 mps 761 mmHg 37%
    14:00 +31°C° 0 mm 2 mps 760 mmHg 36%
    15:00 +31°C° 0 mm 2 mps 760 mmHg 35%
    16:00 +29°C° 0 mm 2 mps 760 mmHg 40%
    17:00 +27°C° 0 mm 2 mps 760 mmHg 45%
    18:00 +25°C° 0 mm 2 mps 760 mmHg 49%
    19:00 +24°C° 0 mm 2 mps 760 mmHg 49%
    20:00 +23°C° 0 mm 1 mps 760 mmHg 49%
    21:00 +22°C° 0 mm 1 mps 761 mmHg 49%
    22:00 +22°C° 0 mm 1 mps 760 mmHg 49%
    23:00 +21°C° 0 mm 1 mps 760 mmHg 49%

    27 August, Tuesday

    Time Temperature Precipitation Wind Pressure Humidity
    00:00 +21°C° 0 mm 1 mps 760 mmHg 50%
    01:00 +21°C° 0 mm 1 mps 760 mmHg 52%
    02:00 +21°C° 0 mm 1 mps 759 mmHg 54%
    03:00 +20°C° 0 mm 1 mps 759 mmHg 57%
    04:00 +21°C° 0 mm 1 mps 759 mmHg 59%
    05:00 +21°C° 0 mm 1 mps 759 mmHg 62%
    06:00 +21°C° 0 mm 1 mps 759 mmHg 65%
    07:00 +24°C° 0 mm 1 mps 759 mmHg 59%
    08:00 +26°C° 0 mm 1 mps 759 mmHg 52%
    09:00 +29°C° 0 mm 1 mps 759 mmHg 46%
    10:00 +30°C° 0 mm 1 mps 759 mmHg 43%
    11:00 +31°C° 0 mm 1 mps 758 mmHg 39%
    12:00 +32°C° 0 mm 2 mps 758 mmHg 35%
    13:00 +32°C° 0 mm 2 mps 758 mmHg 36%
    14:00 +33°C° 0 mm 3 mps 757 mmHg 36%
    15:00 +33°C° 0 mm 3 mps 757 mmHg 36%
    16:00 +30°C° 0 mm 3 mps 757 mmHg 42%
    17:00 +29°C° 0 mm 3 mps 756 mmHg 48%
    18:00 +27°C° 0 mm 3 mps 756 mmHg 54%
    19:00 +26°C° 0 mm 3 mps 756 mmHg 57%
    20:00 +24°C° 0 mm 2 mps 756 mmHg 59%
    21:00 +23°C° 0 mm 2 mps 756 mmHg 62%
    22:00 +23°C° 0 mm 1 mps 756 mmHg 63%
    23:00 +23°C° 0 mm 1 mps 756 mmHg 64%
    Show more